JZA8693 KBOS-CYYZ

Flight info

Callsign JZA8693
Flight time 1h 19m
Altitude 36000
Route HYLND7 HYLND CAM Q822 GONZZ WOZEE LINNG3
Aircraft E175/M-SDE3GILORVW/S

Departure

Time 2026-05-07 20:57
Airport Boston Logan International Airport (KBOS)

Arrival

Time 2026-05-07 22:16
Airport Toronto Pearson International Airport (CYYZ)
Time Latitude Longitude Altitude Speed Heading
2026-05-07 20:32 42.36324 -71.01970 23 ft 0 kts 146°
2026-05-07 20:44 42.36325 -71.01972 23 ft 2 kts 145°
2026-05-07 20:44 42.36344 -71.01996 25 ft 4 kts 128°
2026-05-07 20:44 42.36355 -71.02007 25 ft 1 kts 214°
2026-05-07 20:47 42.36355 -71.02008 25 ft 1 kts 214°
2026-05-07 20:47 42.36326 -71.02031 24 ft 8 kts 208°
2026-05-07 20:47 42.36290 -71.02094 24 ft 10 kts 249°
2026-05-07 20:48 42.36269 -71.02190 23 ft 11 kts 251°
2026-05-07 20:48 42.36222 -71.02281 23 ft 12 kts 245°
2026-05-07 20:48 42.36189 -71.02345 23 ft 0 kts 195°
2026-05-07 20:49 42.36188 -71.02346 23 ft 1 kts 195°
2026-05-07 20:49 42.36150 -71.02352 23 ft 9 kts 180°
2026-05-07 20:49 42.36071 -71.02313 23 ft 16 kts 146°
2026-05-07 20:50 42.35998 -71.02180 23 ft 19 kts 121°
2026-05-07 20:50 42.35926 -71.02017 23 ft 21 kts 121°
2026-05-07 20:50 42.35854 -71.01832 23 ft 24 kts 104°
2026-05-07 20:50 42.35852 -71.01666 25 ft 12 kts 29°
2026-05-07 20:51 42.35942 -71.01623 23 ft 16 kts 19°
2026-05-07 20:51 42.36054 -71.01570 23 ft 18 kts 20°
2026-05-07 20:51 42.36176 -71.01508 23 ft 19 kts 19°
2026-05-07 20:51 42.36306 -71.01446 24 ft 18 kts 19°
2026-05-07 20:52 42.36351 -71.01347 23 ft 15 kts 123°
2026-05-07 20:52 42.36291 -71.01218 23 ft 18 kts 121°
2026-05-07 20:52 42.36233 -71.01062 23 ft 20 kts 117°
2026-05-07 20:52 42.36172 -71.00884 23 ft 22 kts 113°
2026-05-07 20:53 42.36112 -71.00685 24 ft 24 kts 109°
2026-05-07 20:53 42.36054 -71.00463 23 ft 26 kts 109°
2026-05-07 20:53 42.35995 -71.00219 23 ft 28 kts 109°
2026-05-07 20:53 42.35913 -71.00027 23 ft 10 kts 133°
2026-05-07 20:54 42.35848 -70.99938 24 ft 18 kts 135°
2026-05-07 20:54 42.35753 -70.99812 23 ft 20 kts 136°
2026-05-07 20:54 42.35647 -70.99669 23 ft 23 kts 135°
2026-05-07 20:54 42.35531 -70.99515 23 ft 20 kts 136°
2026-05-07 20:55 42.35497 -70.99355 23 ft 20 kts 77°
2026-05-07 20:55 42.35557 -70.99291 23 ft 11 kts 328°
2026-05-07 20:55 42.35582 -70.99323 23 ft 0 kts 315°
2026-05-07 20:56 42.35583 -70.99324 23 ft 1 kts 315°
2026-05-07 20:56 42.35640 -70.99400 25 ft 29 kts 315°
2026-05-07 20:56 42.35990 -70.99868 23 ft 112 kts 314°
2026-05-07 20:56 42.36714 -71.00814 309 ft 163 kts 316°
2026-05-07 20:57 42.37583 -71.01909 1355 ft 178 kts 315°
2026-05-07 20:57 42.38513 -71.03146 2185 ft 192 kts 309°
2026-05-07 20:57 42.39304 -71.04652 3043 ft 203 kts 300°
2026-05-07 20:57 42.39972 -71.06401 3864 ft 214 kts 295°
2026-05-07 20:58 42.40673 -71.08300 4557 ft 236 kts 298°
2026-05-07 20:58 42.41802 -71.10014 5204 ft 257 kts 324°
2026-05-07 20:58 42.43447 -71.11051 6096 ft 263 kts 335°
2026-05-07 20:58 42.45136 -71.11959 6991 ft 264 kts 335°
2026-05-07 20:59 42.46846 -71.12879 7887 ft 266 kts 334°
2026-05-07 20:59 42.48561 -71.13827 8834 ft 266 kts 332°
2026-05-07 20:59 42.50265 -71.14769 9812 ft 264 kts 331°
2026-05-07 20:59 42.52003 -71.15722 10360 ft 280 kts 332°
2026-05-07 21:00 42.53910 -71.16626 10741 ft 301 kts 335°
2026-05-07 21:00 42.55973 -71.17527 11093 ft 321 kts 335°
2026-05-07 21:00 42.58129 -71.18477 11700 ft 330 kts 334°
2026-05-07 21:00 42.60328 -71.19456 12515 ft 335 kts 333°
2026-05-07 21:01 42.62526 -71.20446 13360 ft 340 kts 332°
2026-05-07 21:01 42.64789 -71.21475 14136 ft 346 kts 332°
2026-05-07 21:01 42.67095 -71.22528 14928 ft 353 kts 331°
2026-05-07 21:01 42.69445 -71.23602 15725 ft 359 kts 331°
2026-05-07 21:02 42.71838 -71.24698 16466 ft 367 kts 331°
2026-05-07 21:02 42.74276 -71.25814 17191 ft 373 kts 330°
2026-05-07 21:02 42.76545 -71.27364 17903 ft 356 kts 310°
2026-05-07 21:02 42.78014 -71.29841 18704 ft 331 kts 287°
2026-05-07 21:03 42.78673 -71.32758 19542 ft 318 kts 272°
2026-05-07 21:03 42.79088 -71.35728 20294 ft 323 kts 275°
2026-05-07 21:03 42.79588 -71.38715 20997 ft 325 kts 275°
2026-05-07 21:03 42.80061 -71.41736 21707 ft 326 kts 274°
2026-05-07 21:04 42.80487 -71.44774 22403 ft 327 kts 272°
2026-05-07 21:04 42.80887 -71.47831 23108 ft 329 kts 272°
2026-05-07 21:04 42.81279 -71.50901 23713 ft 331 kts 272°
2026-05-07 21:04 42.81670 -71.54007 24272 ft 334 kts 272°
2026-05-07 21:05 42.82056 -71.57110 24830 ft 337 kts 272°
2026-05-07 21:05 42.82445 -71.60271 25385 ft 340 kts 272°
2026-05-07 21:05 42.82837 -71.63435 26110 ft 338 kts 272°
2026-05-07 21:05 42.83237 -71.66572 26836 ft 335 kts 272°
2026-05-07 21:06 42.83632 -71.69698 27507 ft 334 kts 272°
2026-05-07 21:06 42.84011 -71.72812 28164 ft 333 kts 271°
2026-05-07 21:06 42.84383 -71.75924 28821 ft 332 kts 271°
2026-05-07 21:06 42.84751 -71.79028 29452 ft 331 kts 271°
2026-05-07 21:07 42.85114 -71.82133 30038 ft 331 kts 271°
2026-05-07 21:07 42.85469 -71.85179 30589 ft 330 kts 271°
2026-05-07 21:07 42.85825 -71.88251 31125 ft 328 kts 271°
2026-05-07 21:07 42.86177 -71.91322 31647 ft 327 kts 270°
2026-05-07 21:08 42.86522 -71.94384 32146 ft 326 kts 270°
2026-05-07 21:08 42.86863 -71.97435 32656 ft 325 kts 270°
2026-05-07 21:08 42.87199 -72.00477 33161 ft 324 kts 270°
2026-05-07 21:08 42.87531 -72.03502 33662 ft 322 kts 269°
2026-05-07 21:09 42.87858 -72.06517 34051 ft 322 kts 269°
2026-05-07 21:09 42.88172 -72.09496 34363 ft 322 kts 269°
2026-05-07 21:09 42.88484 -72.12511 34689 ft 321 kts 269°
2026-05-07 21:09 42.88795 -72.15529 35023 ft 321 kts 269°
2026-05-07 21:10 42.89104 -72.18548 35352 ft 321 kts 269°
2026-05-07 21:10 42.89412 -72.21567 35672 ft 321 kts 269°
2026-05-07 21:10 42.89718 -72.24571 35979 ft 322 kts 269°
2026-05-07 21:11 42.90292 -72.30785 35907 ft 340 kts 269°
2026-05-07 21:11 42.90571 -72.34000 35803 ft 350 kts 269°
2026-05-07 21:11 42.91185 -72.40732 35821 ft 365 kts 270°
2026-05-07 21:12 42.91827 -72.47711 35822 ft 374 kts 270°
2026-05-07 21:12 42.92475 -72.54770 35800 ft 375 kts 270°
2026-05-07 21:13 42.93112 -72.61830 35820 ft 375 kts 270°
2026-05-07 21:13 42.93743 -72.68856 35836 ft 377 kts 270°
2026-05-07 21:14 42.94375 -72.75949 35830 ft 376 kts 270°
2026-05-07 21:14 42.94999 -72.83038 35850 ft 377 kts 270°
2026-05-07 21:15 42.95622 -72.90152 35838 ft 378 kts 270°
2026-05-07 21:15 42.96238 -72.97224 35834 ft 379 kts 270°
2026-05-07 21:16 42.96854 -73.04363 35846 ft 379 kts 270°
2026-05-07 21:16 42.97468 -73.11515 35829 ft 380 kts 270°
2026-05-07 21:17 42.98079 -73.18673 35848 ft 379 kts 270°
2026-05-07 21:17 42.98679 -73.25771 35837 ft 379 kts 270°
2026-05-07 21:18 42.99280 -73.32924 35837 ft 378 kts 270°
2026-05-07 21:18 42.99620 -73.40059 35866 ft 376 kts 266°
2026-05-07 21:19 42.99736 -73.47186 35846 ft 375 kts 266°
2026-05-07 21:19 42.99891 -73.54268 35854 ft 375 kts 267°
2026-05-07 21:20 43.00061 -73.61392 35866 ft 375 kts 267°
2026-05-07 21:20 43.00228 -73.68517 35876 ft 375 kts 267°
2026-05-07 21:21 43.00390 -73.75638 35871 ft 375 kts 267°
2026-05-07 21:21 43.00547 -73.82709 35881 ft 375 kts 267°
2026-05-07 21:22 43.00701 -73.89827 35875 ft 375 kts 267°
2026-05-07 21:22 43.00849 -73.96945 35880 ft 375 kts 267°
2026-05-07 21:23 43.00994 -74.04074 35882 ft 376 kts 267°
2026-05-07 21:23 43.01135 -74.11167 35881 ft 376 kts 267°
2026-05-07 21:24 43.01272 -74.18314 35882 ft 376 kts 267°
2026-05-07 21:24 43.01403 -74.25467 35885 ft 377 kts 267°
2026-05-07 21:25 43.01694 -74.32637 35879 ft 379 kts 269°
2026-05-07 21:25 43.02047 -74.39776 35894 ft 379 kts 269°
2026-05-07 21:26 43.02376 -74.46975 35892 ft 380 kts 269°
2026-05-07 21:26 43.02696 -74.54195 35888 ft 380 kts 269°
2026-05-07 21:27 43.03011 -74.61420 35891 ft 381 kts 269°
2026-05-07 21:27 43.03320 -74.68602 35897 ft 382 kts 269°
2026-05-07 21:28 43.03626 -74.75857 35891 ft 382 kts 269°
2026-05-07 21:28 43.03928 -74.83106 35898 ft 383 kts 269°
2026-05-07 21:29 43.04222 -74.90372 35898 ft 383 kts 269°
2026-05-07 21:29 43.04518 -74.97651 35899 ft 383 kts 269°
2026-05-07 21:30 43.04806 -75.04881 35908 ft 384 kts 269°
2026-05-07 21:30 43.05091 -75.12175 35906 ft 384 kts 269°
2026-05-07 21:31 43.05371 -75.19470 35905 ft 384 kts 269°
2026-05-07 21:31 43.05647 -75.26771 35912 ft 385 kts 269°
2026-05-07 21:32 43.05891 -75.34021 35914 ft 384 kts 268°
2026-05-07 21:32 43.06086 -75.41333 35895 ft 385 kts 268°
2026-05-07 21:33 43.06284 -75.48640 35905 ft 385 kts 268°
2026-05-07 21:33 43.06481 -75.55914 35901 ft 385 kts 268°
2026-05-07 21:34 43.06674 -75.63229 35906 ft 385 kts 268°
2026-05-07 21:34 43.06862 -75.70554 35913 ft 385 kts 268°
2026-05-07 21:35 43.07045 -75.77882 35909 ft 385 kts 268°
2026-05-07 21:35 43.07225 -75.85158 35911 ft 385 kts 268°
2026-05-07 21:36 43.07399 -75.92480 35909 ft 386 kts 268°
2026-05-07 21:36 43.07570 -75.99818 35905 ft 386 kts 268°
2026-05-07 21:37 43.07735 -76.07154 35907 ft 386 kts 268°
2026-05-07 21:37 43.07894 -76.14449 35908 ft 386 kts 268°
2026-05-07 21:38 43.08051 -76.21790 35906 ft 386 kts 268°
2026-05-07 21:38 43.08202 -76.29132 35909 ft 386 kts 268°
2026-05-07 21:39 43.08349 -76.36481 35914 ft 387 kts 268°
2026-05-07 21:39 43.08491 -76.43777 35919 ft 386 kts 268°
2026-05-07 21:40 43.08629 -76.51125 35922 ft 386 kts 268°
2026-05-07 21:40 43.08762 -76.58476 35931 ft 387 kts 268°
2026-05-07 21:41 43.08889 -76.65824 35937 ft 386 kts 268°
2026-05-07 21:41 43.08597 -76.73086 35925 ft 386 kts 263°
2026-05-07 21:42 43.08135 -76.80377 35937 ft 384 kts 263°
2026-05-07 21:42 43.07646 -76.87654 35940 ft 384 kts 263°
2026-05-07 21:43 43.07146 -76.94935 35938 ft 384 kts 263°
2026-05-07 21:43 43.06647 -77.02157 35942 ft 384 kts 263°
2026-05-07 21:44 43.06139 -77.09429 35938 ft 384 kts 263°
2026-05-07 21:44 43.05628 -77.16692 35935 ft 383 kts 263°
2026-05-07 21:45 43.05113 -77.23937 35919 ft 383 kts 263°
2026-05-07 21:45 43.04592 -77.31195 35914 ft 383 kts 263°
2026-05-07 21:46 43.04071 -77.38402 35916 ft 383 kts 263°
2026-05-07 21:46 43.03542 -77.45645 35920 ft 383 kts 263°
2026-05-07 21:47 43.03009 -77.52883 35924 ft 383 kts 263°
2026-05-07 21:47 43.02470 -77.60129 35921 ft 383 kts 263°
2026-05-07 21:48 43.01930 -77.67329 35910 ft 384 kts 263°
2026-05-07 21:48 43.01382 -77.74580 35916 ft 384 kts 263°
2026-05-07 21:49 43.00830 -77.81829 35926 ft 384 kts 263°
2026-05-07 21:49 43.00273 -77.89083 35711 ft 381 kts 263°
2026-05-07 21:50 43.00001 -77.92615 35461 ft 366 kts 263°
2026-05-07 21:50 42.99739 -77.96009 35054 ft 356 kts 262°
2026-05-07 21:50 42.99479 -77.99351 34553 ft 349 kts 262°
2026-05-07 21:50 42.99226 -78.02574 34088 ft 342 kts 262°
2026-05-07 21:51 42.98974 -78.05774 33617 ft 335 kts 262°
2026-05-07 21:51 42.98730 -78.08887 33196 ft 325 kts 262°
2026-05-07 21:51 42.98490 -78.11920 32781 ft 317 kts 262°
2026-05-07 21:51 42.98254 -78.14883 32340 ft 312 kts 262°
2026-05-07 21:52 42.98017 -78.17830 31979 ft 313 kts 262°
2026-05-07 21:52 42.97776 -78.20820 31516 ft 320 kts 262°
2026-05-07 21:52 42.97536 -78.23802 31108 ft 321 kts 262°
2026-05-07 21:52 42.97293 -78.26832 30671 ft 320 kts 262°
2026-05-07 21:53 42.97051 -78.29839 30253 ft 319 kts 261°
2026-05-07 21:53 42.96808 -78.32846 29809 ft 318 kts 261°
2026-05-07 21:53 42.96563 -78.35843 29427 ft 319 kts 261°
2026-05-07 21:53 42.96314 -78.38879 28974 ft 323 kts 261°
2026-05-07 21:54 42.96064 -78.41940 28542 ft 327 kts 261°
2026-05-07 21:54 42.95811 -78.45031 28126 ft 329 kts 261°
2026-05-07 21:54 42.95552 -78.48157 27669 ft 332 kts 261°
2026-05-07 21:54 42.95296 -78.51255 27243 ft 334 kts 261°
2026-05-07 21:55 42.95033 -78.54421 26799 ft 337 kts 261°
2026-05-07 21:55 42.94767 -78.57617 26340 ft 340 kts 261°
2026-05-07 21:55 42.94499 -78.60835 25891 ft 343 kts 261°
2026-05-07 21:55 42.94228 -78.64083 25421 ft 346 kts 261°
2026-05-07 21:56 42.93952 -78.67354 24966 ft 347 kts 261°
2026-05-07 21:56 42.93742 -78.70535 24509 ft 347 kts 267°
2026-05-07 21:56 42.94202 -78.73796 24078 ft 356 kts 284°
2026-05-07 21:56 42.95352 -78.76790 23552 ft 368 kts 299°
2026-05-07 21:57 42.96934 -78.79539 23053 ft 367 kts 302°
2026-05-07 21:57 42.98539 -78.82234 22570 ft 366 kts 302°
2026-05-07 21:57 43.00150 -78.84909 22101 ft 364 kts 303°
2026-05-07 21:57 43.01758 -78.87566 21604 ft 362 kts 303°
2026-05-07 21:58 43.03340 -78.90229 21124 ft 359 kts 302°
2026-05-07 21:58 43.04890 -78.92893 20660 ft 357 kts 302°
2026-05-07 21:58 43.06442 -78.95532 20179 ft 356 kts 303°
2026-05-07 21:58 43.08002 -78.98148 19708 ft 354 kts 303°
2026-05-07 21:59 43.09539 -79.00713 19247 ft 352 kts 304°
2026-05-07 21:59 43.11090 -79.03300 18776 ft 350 kts 304°
2026-05-07 21:59 43.12630 -79.05869 18316 ft 348 kts 304°
2026-05-07 21:59 43.14160 -79.08426 17833 ft 345 kts 304°
2026-05-07 22:00 43.15676 -79.10960 17312 ft 343 kts 304°
2026-05-07 22:00 43.17172 -79.13462 16023 ft 339 kts 304°
2026-05-07 22:00 43.18645 -79.15929 15687 ft 334 kts 304°
2026-05-07 22:00 43.20103 -79.18378 15229 ft 336 kts 305°
2026-05-07 22:01 43.21578 -79.20854 14797 ft 334 kts 305°
2026-05-07 22:01 43.23027 -79.23282 14343 ft 324 kts 305°
2026-05-07 22:01 43.24427 -79.25629 13933 ft 313 kts 305°
2026-05-07 22:01 43.25783 -79.27910 13495 ft 304 kts 305°
2026-05-07 22:02 43.27097 -79.30119 13141 ft 294 kts 305°
2026-05-07 22:02 43.28372 -79.32267 12741 ft 287 kts 305°
2026-05-07 22:02 43.29621 -79.34360 12361 ft 280 kts 307°
2026-05-07 22:02 43.31162 -79.35978 12023 ft 281 kts 327°
2026-05-07 22:03 43.32890 -79.37147 11632 ft 281 kts 329°
2026-05-07 22:03 43.34654 -79.38284 11263 ft 280 kts 330°
2026-05-07 22:03 43.36419 -79.39418 10943 ft 279 kts 330°
2026-05-07 22:03 43.38173 -79.40545 10614 ft 278 kts 330°
2026-05-07 22:04 43.39930 -79.41672 10297 ft 278 kts 330°
2026-05-07 22:04 43.41663 -79.42785 10158 ft 273 kts 330°
2026-05-07 22:04 43.43399 -79.43905 9848 ft 278 kts 330°
2026-05-07 22:04 43.45148 -79.45033 9520 ft 276 kts 330°
2026-05-07 22:05 43.46855 -79.46130 9262 ft 273 kts 330°
2026-05-07 22:05 43.48568 -79.47233 8986 ft 272 kts 330°
2026-05-07 22:05 43.50268 -79.48330 8682 ft 267 kts 330°
2026-05-07 22:05 43.51931 -79.49400 8413 ft 260 kts 331°
2026-05-07 22:06 43.53540 -79.50436 8222 ft 251 kts 330°
2026-05-07 22:06 43.55088 -79.51436 8118 ft 241 kts 330°
2026-05-07 22:06 43.56599 -79.52408 7872 ft 239 kts 331°
2026-05-07 22:06 43.58106 -79.53346 7611 ft 237 kts 337°
2026-05-07 22:07 43.59751 -79.53473 7363 ft 244 kts 12°
2026-05-07 22:07 43.61189 -79.52249 7137 ft 246 kts 40°
2026-05-07 22:07 43.62342 -79.50559 6938 ft 243 kts 45°
2026-05-07 22:07 43.63463 -79.48826 6701 ft 241 kts 45°
2026-05-07 22:08 43.64587 -79.47132 6486 ft 238 kts 44°
2026-05-07 22:08 43.65715 -79.45462 6246 ft 237 kts 44°
2026-05-07 22:08 43.66843 -79.43809 6009 ft 236 kts 44°
2026-05-07 22:08 43.67972 -79.42168 5777 ft 235 kts 43°
2026-05-07 22:09 43.69098 -79.40536 5529 ft 234 kts 43°
2026-05-07 22:09 43.70221 -79.38914 5295 ft 233 kts 43°
2026-05-07 22:09 43.71340 -79.37298 5062 ft 232 kts 43°
2026-05-07 22:09 43.72461 -79.35709 4835 ft 229 kts 39°
2026-05-07 22:10 43.73831 -79.34736 4581 ft 220 kts
2026-05-07 22:10 43.75287 -79.35058 4347 ft 211 kts 328°
2026-05-07 22:10 43.76439 -79.36245 4144 ft 210 kts 319°
2026-05-07 22:10 43.77589 -79.37503 3914 ft 210 kts 318°
2026-05-07 22:11 43.78435 -79.39101 3655 ft 208 kts 286°
2026-05-07 22:11 43.78435 -79.41062 3455 ft 203 kts 259°
2026-05-07 22:11 43.78109 -79.42912 3224 ft 195 kts 257°
2026-05-07 22:11 43.77737 -79.44670 2935 ft 187 kts 245°
2026-05-07 22:12 43.76937 -79.45959 3037 ft 172 kts 226°
2026-05-07 22:12 43.76095 -79.47108 2989 ft 167 kts 232°
2026-05-07 22:12 43.75330 -79.48318 2936 ft 171 kts 231°
2026-05-07 22:12 43.74506 -79.49510 2668 ft 167 kts 230°
2026-05-07 22:13 43.73739 -79.50617 2430 ft 156 kts 231°
2026-05-07 22:13 43.73043 -79.51649 2234 ft 136 kts 232°
2026-05-07 22:13 43.72418 -79.52564 2040 ft 127 kts 232°
2026-05-07 22:13 43.71811 -79.53451 1866 ft 126 kts 231°
2026-05-07 22:14 43.71223 -79.54314 1704 ft 127 kts 232°
2026-05-07 22:14 43.70616 -79.55203 1499 ft 127 kts 231°
2026-05-07 22:14 43.69999 -79.56102 1324 ft 132 kts 233°
2026-05-07 22:14 43.69362 -79.57039 1164 ft 135 kts 232°
2026-05-07 22:15 43.68704 -79.58000 994 ft 140 kts 231°
2026-05-07 22:15 43.68044 -79.58960 779 ft 139 kts 231°
2026-05-07 22:15 43.67380 -79.59926 589 ft 138 kts 232°
2026-05-07 22:15 43.66795 -79.60794 559 ft 108 kts 227°
2026-05-07 22:16 43.66448 -79.61335 555 ft 47 kts 243°
2026-05-07 22:16 43.66376 -79.61604 556 ft 15 kts 253°
2026-05-07 22:16 43.66374 -79.61669 556 ft 0 kts 286°
2026-05-07 22:16 43.66379 -79.61687 562 ft 5 kts 298°
2026-05-07 22:17 43.66412 -79.61739 561 ft 10 kts 315°
2026-05-07 22:17 43.66477 -79.61824 559 ft 15 kts 317°
2026-05-07 22:17 43.66520 -79.61881 562 ft 0 kts 314°
2026-05-07 22:17 43.66538 -79.61905 561 ft 7 kts 318°
2026-05-07 22:18 43.66593 -79.61929 561 ft 11 kts
2026-05-07 22:18 43.66709 -79.61790 561 ft 13 kts 47°
2026-05-07 22:18 43.66777 -79.61694 560 ft 14 kts 45°
2026-05-07 22:19 43.66850 -79.61586 559 ft 16 kts 46°
2026-05-07 22:19 43.66932 -79.61470 564 ft 17 kts 47°
2026-05-07 22:19 43.67012 -79.61351 567 ft 18 kts 47°
2026-05-07 22:19 43.67105 -79.61216 564 ft 21 kts 46°
2026-05-07 22:20 43.67215 -79.61056 555 ft 25 kts 47°
2026-05-07 22:20 43.67338 -79.60878 555 ft 26 kts 46°
2026-05-07 22:20 43.67450 -79.60716 560 ft 22 kts 48°
2026-05-07 22:20 43.67560 -79.60557 565 ft 24 kts 46°
2026-05-07 22:21 43.67653 -79.60421 561 ft 11 kts 46°
2026-05-07 22:21 43.67712 -79.60338 558 ft 14 kts 43°
2026-05-07 22:21 43.67798 -79.60351 562 ft 14 kts 319°
2026-05-07 22:21 43.67831 -79.60467 562 ft 15 kts 246°
2026-05-07 22:22 43.67764 -79.60576 563 ft 17 kts 225°
2026-05-07 22:22 43.67747 -79.60719 565 ft 18 kts 313°
2026-05-07 22:22 43.67838 -79.60840 559 ft 18 kts 307°
2026-05-07 22:22 43.67878 -79.60979 562 ft 11 kts 277°
2026-05-07 22:23 43.67879 -79.61041 566 ft 3 kts 271°
2026-05-07 22:23 43.67880 -79.61064 563 ft 0 kts 271°